Year,Month,Day,Hour,Minute,Value (Times are PST for temperature in C)
2013,07,17,00,00,20.80
2013,07,17,00,01,20.80
2013,07,17,00,02,20.70
2013,07,17,00,03,20.60
2013,07,17,00,04,20.50
2013,07,17,00,05,20.40
2013,07,17,00,06,20.30
2013,07,17,00,07,20.20
2013,07,17,00,08,20.20
2013,07,17,00,09,20.20
2013,07,17,00,10,20.20
2013,07,17,00,11,20.10
2013,07,17,00,12,19.90
2013,07,17,00,13,19.90
2013,07,17,00,14,19.90
2013,07,17,00,15,19.80
2013,07,17,00,16,19.80
2013,07,17,00,17,19.70
2013,07,17,00,18,19.70
2013,07,17,00,19,19.70
2013,07,17,00,20,19.70
2013,07,17,00,21,19.70
2013,07,17,00,22,19.70
2013,07,17,00,23,19.70
2013,07,17,00,24,19.70
2013,07,17,00,25,19.70
2013,07,17,00,26,19.60
2013,07,17,00,27,19.60
2013,07,17,00,28,19.60
2013,07,17,00,29,19.50
2013,07,17,00,30,19.50
2013,07,17,00,31,19.50
2013,07,17,00,32,19.50
2013,07,17,00,33,19.50
2013,07,17,00,34,19.50
2013,07,17,00,35,19.50
2013,07,17,00,36,19.50
2013,07,17,00,37,19.50
2013,07,17,00,38,19.50
2013,07,17,00,39,19.50
2013,07,17,00,40,19.40
2013,07,17,00,41,19.40
2013,07,17,00,42,19.40
2013,07,17,00,43,19.40
2013,07,17,00,44,19.40
2013,07,17,00,45,19.40
2013,07,17,00,46,19.40
2013,07,17,00,47,19.40
2013,07,17,00,48,19.40
2013,07,17,00,49,19.40
2013,07,17,00,50,19.40
2013,07,17,00,51,19.40
2013,07,17,00,52,19.40
2013,07,17,00,53,19.40
2013,07,17,00,54,19.40
2013,07,17,00,55,19.40
2013,07,17,00,56,19.50
2013,07,17,00,57,19.50
2013,07,17,00,58,19.50
2013,07,17,00,59,19.50
2013,07,17,01,00,19.50
2013,07,17,01,01,19.50
2013,07,17,01,02,19.50
2013,07,17,01,03,19.50
2013,07,17,01,04,19.40
2013,07,17,01,05,19.40
2013,07,17,01,06,19.40
2013,07,17,01,07,19.40
2013,07,17,01,08,19.40
2013,07,17,01,09,19.40
2013,07,17,01,10,19.40
2013,07,17,01,11,19.50
2013,07,17,01,12,19.50
2013,07,17,01,13,19.50
2013,07,17,01,14,19.50
2013,07,17,01,15,19.50
2013,07,17,01,16,19.50
2013,07,17,01,17,19.60
2013,07,17,01,18,19.60
2013,07,17,01,19,19.70
2013,07,17,01,20,19.80
2013,07,17,01,21,19.90
2013,07,17,01,22,19.90
2013,07,17,01,23,20.10
2013,07,17,01,24,20.10
2013,07,17,01,25,20.20
2013,07,17,01,26,20.20
2013,07,17,01,27,20.20
2013,07,17,01,28,20.30
2013,07,17,01,29,20.30
2013,07,17,01,30,20.40
2013,07,17,01,31,20.40
2013,07,17,01,32,20.50
2013,07,17,01,33,20.50
2013,07,17,01,34,20.50
2013,07,17,01,35,20.40
2013,07,17,01,36,20.40
2013,07,17,01,37,20.30
2013,07,17,01,38,20.30
2013,07,17,01,39,20.20
2013,07,17,01,40,20.20
2013,07,17,01,41,20.20
2013,07,17,01,42,20.10
2013,07,17,01,43,20.10
2013,07,17,01,44,20.10
2013,07,17,01,45,19.90
2013,07,17,01,46,19.90
2013,07,17,01,47,19.90
2013,07,17,01,48,19.90
2013,07,17,01,49,19.90
2013,07,17,01,50,19.90
2013,07,17,01,51,19.90
2013,07,17,01,52,19.90
2013,07,17,01,53,19.90
2013,07,17,01,54,19.90
2013,07,17,01,55,19.90
2013,07,17,01,56,19.90
2013,07,17,01,57,19.90
2013,07,17,01,58,19.90
2013,07,17,01,59,19.90
2013,07,17,02,00,19.90
2013,07,17,02,01,19.90
2013,07,17,02,02,19.90
2013,07,17,02,03,19.90
2013,07,17,02,04,19.90
2013,07,17,02,05,19.90
2013,07,17,02,06,19.90
2013,07,17,02,07,19.90
2013,07,17,02,08,19.90
2013,07,17,02,09,19.90
2013,07,17,02,10,19.90
2013,07,17,02,11,20.10
2013,07,17,02,12,20.10
2013,07,17,02,13,20.20
2013,07,17,02,14,20.20
2013,07,17,02,15,20.20
2013,07,17,02,16,20.20
2013,07,17,02,17,20.20
2013,07,17,02,18,20.20
2013,07,17,02,19,20.20
2013,07,17,02,20,20.20
2013,07,17,02,21,20.20
2013,07,17,02,22,20.20
2013,07,17,02,23,20.20
2013,07,17,02,24,20.20
2013,07,17,02,25,20.20
2013,07,17,02,26,20.30
2013,07,17,02,27,20.30
2013,07,17,02,28,20.30
2013,07,17,02,29,20.40
2013,07,17,02,30,20.40
2013,07,17,02,31,20.50
2013,07,17,02,32,20.50
2013,07,17,02,33,20.50
2013,07,17,02,34,20.60
2013,07,17,02,35,20.60
2013,07,17,02,36,20.70
2013,07,17,02,37,20.70
2013,07,17,02,38,20.80
2013,07,17,02,39,20.90
2013,07,17,02,40,20.90
2013,07,17,02,41,21.10
2013,07,17,02,42,21.20
2013,07,17,02,43,21.20
2013,07,17,02,44,21.10
2013,07,17,02,45,21.00
2013,07,17,02,46,21.00
2013,07,17,02,47,21.00
2013,07,17,02,48,21.10
2013,07,17,02,49,21.20
2013,07,17,02,50,21.30
2013,07,17,02,51,21.60
2013,07,17,02,52,21.70
2013,07,17,02,53,21.80
2013,07,17,02,54,22.00
2013,07,17,02,55,22.10
2013,07,17,02,56,22.20
2013,07,17,02,57,22.30
2013,07,17,02,58,22.30
2013,07,17,02,59,22.40
2013,07,17,03,00,22.50
2013,07,17,03,01,22.60
2013,07,17,03,02,22.70
2013,07,17,03,03,22.80
2013,07,17,03,04,22.90
2013,07,17,03,05,22.90
2013,07,17,03,06,22.90
2013,07,17,03,07,22.90
2013,07,17,03,08,22.90
2013,07,17,03,09,22.90
2013,07,17,03,10,22.90
2013,07,17,03,11,22.90
2013,07,17,03,12,22.90
2013,07,17,03,13,22.90
2013,07,17,03,14,22.90
2013,07,17,03,15,22.80
2013,07,17,03,16,22.80
2013,07,17,03,17,22.70
2013,07,17,03,18,22.60
2013,07,17,03,19,22.50
2013,07,17,03,20,22.40
2013,07,17,03,21,22.40
2013,07,17,03,22,22.30
2013,07,17,03,23,22.20
2013,07,17,03,24,22.10
2013,07,17,03,25,22.10
2013,07,17,03,26,22.00
2013,07,17,03,27,21.90
2013,07,17,03,28,21.90
2013,07,17,03,29,21.90
2013,07,17,03,30,21.80
2013,07,17,03,31,21.70
2013,07,17,03,32,21.70
2013,07,17,03,33,21.70
2013,07,17,03,34,21.60
2013,07,17,03,35,21.60
2013,07,17,03,36,21.60
2013,07,17,03,37,21.40
2013,07,17,03,38,21.40
2013,07,17,03,39,21.30
2013,07,17,03,40,21.30
2013,07,17,03,41,21.30
2013,07,17,03,42,21.20
2013,07,17,03,43,21.00
2013,07,17,03,44,20.70
2013,07,17,03,45,20.50
2013,07,17,03,46,20.40
2013,07,17,03,47,20.20
2013,07,17,03,48,20.10
2013,07,17,03,49,19.90
2013,07,17,03,50,19.80
2013,07,17,03,51,19.50
2013,07,17,03,52,19.20
2013,07,17,03,53,19.10
2013,07,17,03,54,19.10
2013,07,17,03,55,18.90
2013,07,17,03,56,18.90
2013,07,17,03,57,18.90
2013,07,17,03,58,18.90
2013,07,17,03,59,18.90
2013,07,17,04,00,18.90
2013,07,17,04,01,18.90
2013,07,17,04,02,18.90
2013,07,17,04,03,18.90
2013,07,17,04,04,18.90
2013,07,17,04,05,18.90
2013,07,17,06,38,17.00
2013,07,17,06,39,17.00
2013,07,17,06,40,17.00
2013,07,17,06,41,17.00
2013,07,17,06,42,17.00
2013,07,17,06,43,16.90
2013,07,17,06,44,16.90
2013,07,17,06,45,16.90
2013,07,17,06,46,16.90
2013,07,17,06,47,16.90
2013,07,17,06,48,16.90
2013,07,17,06,49,16.80
2013,07,17,06,50,16.90
2013,07,17,06,51,16.90
2013,07,17,06,52,16.90
2013,07,17,06,53,16.90
2013,07,17,06,54,16.90
2013,07,17,06,55,17.00
2013,07,17,06,56,17.10
2013,07,17,06,57,17.20
2013,07,17,06,58,17.20
2013,07,17,06,59,17.30
2013,07,17,07,00,17.30
2013,07,17,07,01,17.40
2013,07,17,07,02,17.40
2013,07,17,07,03,17.50
2013,07,17,07,04,17.50
2013,07,17,07,05,17.60
2013,07,17,07,06,17.60
2013,07,17,07,07,17.60
2013,07,17,07,08,17.60
2013,07,17,07,09,17.60
2013,07,17,07,10,17.60
2013,07,17,07,11,17.50
2013,07,17,07,12,17.50
2013,07,17,07,13,17.50
2013,07,17,07,14,17.40
2013,07,17,07,15,17.40
2013,07,17,07,16,17.40
2013,07,17,07,17,17.40
2013,07,17,07,18,17.40
2013,07,17,07,19,17.40
2013,07,17,07,20,17.40
2013,07,17,07,21,17.40
2013,07,17,07,22,17.40
2013,07,17,07,23,17.40
2013,07,17,07,24,17.40
2013,07,17,07,25,17.30
2013,07,17,07,26,17.30
2013,07,17,07,27,17.30
2013,07,17,07,28,17.30
2013,07,17,07,29,17.20
2013,07,17,07,30,17.20
2013,07,17,07,31,17.20
2013,07,17,07,32,17.10
2013,07,17,07,33,17.10
2013,07,17,07,34,17.10
2013,07,17,07,35,17.10
2013,07,17,07,36,17.00
2013,07,17,07,37,17.00
2013,07,17,07,38,17.00
2013,07,17,07,39,17.00
2013,07,17,07,40,17.00
2013,07,17,07,41,17.00
2013,07,17,07,42,17.00
2013,07,17,07,43,17.10
2013,07,17,07,44,17.20
2013,07,17,07,45,17.30
2013,07,17,07,46,17.30
2013,07,17,07,47,17.30
2013,07,17,07,48,17.30
2013,07,17,07,49,17.30
2013,07,17,07,50,17.30
2013,07,17,07,51,17.30
2013,07,17,07,52,17.30
2013,07,17,07,53,17.30
2013,07,17,07,54,17.30
2013,07,17,07,55,17.30
2013,07,17,07,56,17.30
2013,07,17,07,57,17.30
2013,07,17,07,58,17.30
2013,07,17,07,59,17.30
2013,07,17,08,00,17.30
2013,07,17,08,01,17.40
2013,07,17,08,02,17.40
2013,07,17,08,03,17.40
2013,07,17,08,04,17.40
2013,07,17,08,05,17.40
2013,07,17,08,06,17.40
2013,07,17,08,07,17.40
2013,07,17,08,08,17.40
2013,07,17,08,09,17.40
2013,07,17,08,10,17.40
2013,07,17,08,11,17.40
2013,07,17,08,12,17.40
2013,07,17,08,13,17.30
2013,07,17,08,14,17.30
2013,07,17,08,15,17.30
2013,07,17,08,16,17.30
2013,07,17,08,17,17.30
2013,07,17,08,18,17.20
2013,07,17,08,19,17.20
2013,07,17,08,20,17.20
2013,07,17,08,21,17.30
2013,07,17,08,22,17.30
2013,07,17,08,23,17.30
2013,07,17,08,24,17.30
2013,07,17,08,25,17.30
2013,07,17,08,26,17.30
2013,07,17,08,27,17.30
2013,07,17,08,28,17.30
2013,07,17,08,29,17.30
2013,07,17,08,30,17.30
2013,07,17,08,31,17.30
2013,07,17,08,32,17.30
2013,07,17,08,33,17.30
2013,07,17,08,34,17.30
2013,07,17,08,35,17.30
2013,07,17,08,36,17.30
2013,07,17,08,37,17.40
2013,07,17,08,38,17.40
2013,07,17,08,39,17.40
2013,07,17,08,40,17.40
2013,07,17,08,41,17.50
2013,07,17,08,42,17.50
2013,07,17,08,43,17.50
2013,07,17,08,44,17.50
2013,07,17,08,45,17.50
2013,07,17,08,46,17.50
2013,07,17,08,47,17.50
2013,07,17,08,48,17.50
2013,07,17,08,49,17.40
2013,07,17,08,50,17.40
2013,07,17,08,51,17.40
2013,07,17,08,52,17.30
2013,07,17,08,53,17.30
2013,07,17,08,54,17.30
2013,07,17,08,55,17.30
2013,07,17,08,56,17.30
2013,07,17,08,57,17.30
2013,07,17,08,58,17.30
2013,07,17,08,59,17.30
2013,07,17,09,00,17.30
2013,07,17,09,01,17.30
2013,07,17,09,02,17.30
2013,07,17,09,03,17.30
2013,07,17,09,04,17.30
2013,07,17,09,05,17.30
2013,07,17,09,06,17.20
2013,07,17,09,07,17.20
2013,07,17,09,08,17.20
2013,07,17,09,09,17.20
2013,07,17,09,10,17.20
2013,07,17,09,11,17.20
2013,07,17,09,12,17.20
2013,07,17,09,13,17.20
2013,07,17,09,14,17.20
2013,07,17,09,15,17.20
2013,07,17,09,16,17.20
2013,07,17,09,17,17.20
2013,07,17,09,18,17.30
2013,07,17,09,19,17.30
2013,07,17,09,20,17.30
2013,07,17,09,21,17.30
2013,07,17,09,22,17.30
2013,07,17,09,23,17.30
2013,07,17,09,24,17.30
2013,07,17,09,25,17.20
2013,07,17,09,26,17.20
2013,07,17,09,27,17.20
2013,07,17,09,28,17.20
2013,07,17,09,29,17.20
2013,07,17,09,30,17.10
2013,07,17,09,31,17.10
2013,07,17,09,32,17.10
2013,07,17,09,33,17.20
2013,07,17,09,34,17.20
2013,07,17,09,35,17.20
2013,07,17,09,36,17.20
2013,07,17,09,37,17.20
2013,07,17,09,38,17.20
2013,07,17,09,39,17.20
2013,07,17,09,40,17.20
2013,07,17,09,41,17.20
2013,07,17,09,42,17.20
2013,07,17,09,43,17.20
2013,07,17,09,44,17.20
2013,07,17,09,45,17.20
2013,07,17,09,46,17.30
2013,07,17,09,47,17.30
2013,07,17,09,48,17.30
2013,07,17,09,49,17.30
2013,07,17,09,50,17.40
2013,07,17,09,51,17.50
2013,07,17,09,52,17.50
2013,07,17,09,53,17.60
2013,07,17,09,54,17.60
2013,07,17,09,55,17.70
2013,07,17,09,56,17.70
2013,07,17,09,57,17.80
2013,07,17,09,58,17.90
2013,07,17,09,59,17.90
2013,07,17,10,00,17.90
2013,07,17,10,01,17.90
2013,07,17,10,02,17.90
2013,07,17,10,03,17.90
2013,07,17,10,04,17.90
2013,07,17,10,05,17.90
2013,07,17,10,06,17.80
2013,07,17,10,07,17.70
2013,07,17,10,08,17.70
2013,07,17,10,09,17.60
2013,07,17,10,10,17.60
2013,07,17,10,11,17.60
2013,07,17,10,12,17.60
2013,07,17,10,13,17.60
2013,07,17,10,14,17.60
2013,07,17,10,15,17.60
2013,07,17,10,16,17.70
2013,07,17,10,17,17.70
2013,07,17,10,18,17.70
2013,07,17,10,19,17.80
2013,07,17,10,20,17.80
2013,07,17,10,21,17.80
2013,07,17,10,22,17.80
2013,07,17,10,23,17.80
2013,07,17,10,24,17.80
2013,07,17,10,25,17.80
2013,07,17,10,26,17.90
2013,07,17,10,27,17.90
2013,07,17,10,28,17.90
2013,07,17,10,29,17.90
2013,07,17,10,30,17.90
2013,07,17,10,31,17.90
2013,07,17,10,32,17.90
2013,07,17,10,33,17.90
2013,07,17,10,34,17.90
2013,07,17,10,35,17.90
2013,07,17,10,36,17.90
2013,07,17,10,37,17.90
2013,07,17,10,38,17.90
2013,07,17,10,39,17.90
2013,07,17,10,40,17.80
2013,07,17,10,41,17.80
2013,07,17,10,42,17.80
2013,07,17,10,43,17.70
2013,07,17,10,44,17.70
2013,07,17,10,45,17.70
2013,07,17,10,46,17.70
2013,07,17,10,47,17.70
2013,07,17,10,48,17.70
2013,07,17,10,49,17.70
2013,07,17,10,50,17.70
2013,07,17,10,51,17.80
2013,07,17,10,52,17.80
2013,07,17,10,53,17.80
2013,07,17,10,54,17.80
2013,07,17,10,55,17.90
2013,07,17,10,56,17.90
2013,07,17,10,57,17.90
2013,07,17,10,58,17.90
2013,07,17,10,59,17.90
2013,07,17,11,00,17.90
2013,07,17,11,01,18.10
2013,07,17,11,02,18.20
2013,07,17,11,03,18.20
2013,07,17,11,04,18.20
2013,07,17,11,05,18.20
2013,07,17,11,06,18.20
2013,07,17,11,07,18.30
2013,07,17,11,08,18.30
2013,07,17,11,09,18.30
2013,07,17,11,10,18.30
2013,07,17,11,11,18.20
2013,07,17,11,12,18.20
2013,07,17,11,13,18.20
2013,07,17,11,14,18.10
2013,07,17,11,15,17.90
2013,07,17,11,16,17.90
2013,07,17,11,17,17.90
2013,07,17,11,18,17.90
2013,07,17,11,19,17.90
2013,07,17,11,20,17.80
2013,07,17,11,21,17.80
2013,07,17,11,22,17.80
2013,07,17,11,23,17.70
2013,07,17,11,24,17.60
2013,07,17,11,25,17.60
2013,07,17,11,26,17.60
2013,07,17,11,27,17.60
2013,07,17,11,28,17.60
2013,07,17,11,29,17.50
2013,07,17,11,30,17.50
2013,07,17,11,31,17.50
2013,07,17,11,32,17.50
2013,07,17,11,33,17.50
2013,07,17,11,34,17.50
2013,07,17,11,35,17.50
2013,07,17,11,36,17.50
2013,07,17,11,37,17.60
2013,07,17,11,38,17.60
2013,07,17,11,39,17.70
2013,07,17,11,40,17.80
2013,07,17,11,41,17.90
2013,07,17,11,42,17.90
2013,07,17,11,43,18.10
2013,07,17,11,44,18.20
2013,07,17,11,45,18.20
2013,07,17,11,46,18.30
2013,07,17,11,47,18.40
2013,07,17,11,48,18.40
2013,07,17,11,49,18.50
2013,07,17,11,50,18.50
2013,07,17,11,51,18.60
2013,07,17,11,52,18.60
2013,07,17,11,53,18.60
2013,07,17,11,54,18.60
2013,07,17,11,55,18.50
2013,07,17,11,56,18.50
2013,07,17,11,57,18.50
2013,07,17,11,58,18.40
2013,07,17,11,59,18.40
2013,07,17,12,00,18.40
2013,07,17,12,01,18.30
2013,07,17,12,02,18.30
2013,07,17,12,03,18.20
2013,07,17,12,04,18.20
2013,07,17,12,05,18.20
2013,07,17,12,06,18.20
2013,07,17,12,07,18.20
2013,07,17,12,08,18.20
2013,07,17,12,09,18.10
2013,07,17,12,10,18.10
2013,07,17,12,11,18.10
2013,07,17,12,12,18.10
2013,07,17,12,13,18.10
2013,07,17,12,14,18.10
2013,07,17,12,15,18.10
2013,07,17,12,16,18.10
2013,07,17,12,17,18.10
2013,07,17,12,18,18.10
2013,07,17,12,19,18.10
2013,07,17,12,20,18.10
2013,07,17,12,21,18.10
2013,07,17,12,22,18.10
2013,07,17,12,23,18.10
2013,07,17,12,24,18.10
2013,07,17,12,25,18.10
2013,07,17,12,26,18.10
2013,07,17,12,27,18.10
2013,07,17,12,28,17.90
2013,07,17,12,29,17.90
2013,07,17,12,30,17.90
2013,07,17,12,31,17.90
2013,07,17,12,32,17.90
2013,07,17,12,33,17.90
2013,07,17,12,34,17.90
2013,07,17,12,35,17.90
2013,07,17,12,36,17.90
2013,07,17,12,37,17.90
2013,07,17,12,38,17.90
2013,07,17,12,39,17.90
2013,07,17,12,40,17.90
2013,07,17,12,41,17.90
2013,07,17,12,42,18.10
2013,07,17,12,43,18.10
2013,07,17,12,44,18.10
2013,07,17,12,45,18.10
2013,07,17,12,46,18.10
2013,07,17,12,47,18.10
2013,07,17,12,48,18.10
2013,07,17,12,49,18.10
2013,07,17,12,50,18.10
2013,07,17,12,51,18.10
2013,07,17,12,52,18.10
2013,07,17,12,53,18.20
2013,07,17,12,54,18.20
2013,07,17,12,55,18.20
2013,07,17,12,56,18.20
2013,07,17,12,57,18.20
2013,07,17,12,58,18.20
2013,07,17,12,59,18.20
2013,07,17,13,00,18.20
2013,07,17,13,01,18.20
2013,07,17,13,02,18.20
2013,07,17,13,03,18.20
2013,07,17,13,04,18.30
2013,07,17,13,05,18.30
2013,07,17,13,06,18.30
2013,07,17,13,07,18.30
2013,07,17,13,08,18.30
2013,07,17,13,09,18.40
2013,07,17,13,10,18.40
2013,07,17,13,11,18.40
2013,07,17,13,12,18.50
2013,07,17,13,13,18.50
2013,07,17,13,14,18.60
2013,07,17,13,15,18.60
2013,07,17,13,16,18.60
2013,07,17,13,17,18.70
2013,07,17,13,18,18.80
2013,07,17,13,19,18.80
2013,07,17,13,20,18.90
2013,07,17,13,21,18.90
2013,07,17,13,22,18.90
2013,07,17,13,23,19.10
2013,07,17,13,24,19.10
2013,07,17,13,25,19.10
2013,07,17,13,26,19.10
2013,07,17,13,27,19.20
2013,07,17,13,28,19.20
2013,07,17,13,29,19.20
2013,07,17,13,30,19.10
2013,07,17,13,31,19.10
2013,07,17,13,32,19.10
2013,07,17,13,33,19.10
2013,07,17,13,34,19.10
2013,07,17,13,35,19.20
2013,07,17,13,36,19.20
2013,07,17,13,37,19.10
2013,07,17,13,38,19.10
2013,07,17,13,39,19.20
2013,07,17,13,40,19.20
2013,07,17,13,41,19.20
2013,07,17,13,42,19.30
2013,07,17,13,43,19.40
2013,07,17,13,44,19.40
2013,07,17,13,45,19.50
2013,07,17,13,46,19.50
2013,07,17,13,47,19.60
2013,07,17,13,48,19.60
2013,07,17,13,49,19.60
2013,07,17,13,50,19.70
2013,07,17,13,51,19.70
2013,07,17,13,52,19.80
2013,07,17,13,53,19.80
2013,07,17,13,54,19.80
2013,07,17,13,55,19.90
2013,07,17,13,56,19.90
2013,07,17,13,57,19.90
2013,07,17,13,58,19.90
2013,07,17,13,59,19.90
2013,07,17,14,00,19.90
2013,07,17,14,01,19.90
2013,07,17,14,02,20.10
2013,07,17,14,03,20.20
2013,07,17,14,04,20.20
2013,07,17,14,05,20.10
2013,07,17,14,06,20.10
2013,07,17,14,07,19.90
2013,07,17,14,08,19.90
2013,07,17,14,09,19.90
2013,07,17,14,10,20.10
2013,07,17,14,11,20.10
2013,07,17,14,12,20.10
2013,07,17,14,13,20.10
2013,07,17,14,14,20.10
2013,07,17,14,15,20.10
2013,07,17,14,16,19.90
2013,07,17,14,17,19.90
2013,07,17,14,18,19.90
2013,07,17,14,19,19.90
2013,07,17,14,20,19.90
2013,07,17,14,21,19.90
2013,07,17,14,22,19.90
2013,07,17,14,23,19.90
2013,07,17,14,24,19.90
2013,07,17,14,25,19.80
2013,07,17,14,26,19.80
2013,07,17,14,27,19.70
2013,07,17,14,28,19.70
2013,07,17,14,29,19.70
2013,07,17,14,30,19.70
2013,07,17,14,31,19.60
2013,07,17,14,32,19.60
2013,07,17,14,33,19.60
2013,07,17,14,34,19.50
2013,07,17,14,35,19.50
2013,07,17,14,36,19.40
2013,07,17,14,37,19.40
2013,07,17,14,38,19.40
2013,07,17,14,39,19.50
2013,07,17,14,40,19.50
2013,07,17,14,41,19.50
2013,07,17,14,42,19.50
2013,07,17,14,43,19.50
2013,07,17,14,44,19.50
2013,07,17,14,45,19.50
2013,07,17,14,46,19.50
2013,07,17,14,47,19.50
2013,07,17,14,48,19.50
2013,07,17,14,49,19.50
2013,07,17,14,50,19.50
2013,07,17,14,51,19.60
2013,07,17,14,52,19.60
2013,07,17,14,53,19.70
2013,07,17,14,54,19.80
2013,07,17,14,55,19.80
2013,07,17,14,56,19.90
2013,07,17,14,57,19.90
2013,07,17,14,58,19.90
2013,07,17,14,59,19.90
2013,07,17,15,00,20.10
2013,07,17,15,01,20.20
2013,07,17,15,02,20.20
2013,07,17,15,03,20.20
2013,07,17,15,04,20.20
2013,07,17,15,05,20.20
2013,07,17,15,06,20.20
2013,07,17,15,07,20.20
2013,07,17,15,08,20.20
2013,07,17,15,09,20.20
2013,07,17,15,10,20.20
2013,07,17,15,11,20.10
2013,07,17,15,12,19.90
2013,07,17,15,13,19.90
2013,07,17,15,14,19.90
2013,07,17,15,15,19.80
2013,07,17,15,16,19.80
2013,07,17,15,17,19.80
2013,07,17,15,18,19.90
2013,07,17,15,19,19.90
2013,07,17,15,20,19.90
2013,07,17,15,21,19.90
2013,07,17,15,22,19.80
2013,07,17,15,23,19.80
2013,07,17,15,24,19.70
2013,07,17,15,25,19.70
2013,07,17,15,26,19.70
2013,07,17,15,27,19.70
2013,07,17,15,28,19.70
2013,07,17,15,29,19.70
2013,07,17,15,30,19.70
2013,07,17,15,31,19.60
2013,07,17,15,32,19.70
2013,07,17,15,33,19.70
2013,07,17,15,34,19.80
2013,07,17,15,35,19.80
2013,07,17,15,36,19.80
2013,07,17,15,37,19.80
2013,07,17,15,38,19.80
2013,07,17,15,39,19.70
2013,07,17,15,40,19.80
2013,07,17,15,41,19.80
2013,07,17,15,42,19.80
2013,07,17,15,43,19.70
2013,07,17,15,44,19.70
2013,07,17,15,45,19.60
2013,07,17,15,46,19.60
2013,07,17,15,47,19.60
2013,07,17,15,48,19.60
2013,07,17,15,49,19.60
2013,07,17,15,50,19.60
2013,07,17,15,51,19.50
2013,07,17,15,52,19.50
2013,07,17,15,53,19.60
2013,07,17,15,54,19.60
2013,07,17,15,55,19.60
2013,07,17,15,56,19.60
2013,07,17,15,57,19.70
2013,07,17,15,58,19.70
2013,07,17,15,59,19.60
2013,07,17,16,00,19.60
2013,07,17,16,01,19.50
2013,07,17,16,02,19.50
2013,07,17,16,03,19.50
2013,07,17,16,04,19.50
2013,07,17,16,05,19.50
2013,07,17,16,06,19.50
2013,07,17,16,07,19.50
2013,07,17,16,08,19.60
2013,07,17,16,09,19.60
2013,07,17,16,10,19.70
2013,07,17,16,11,19.70
2013,07,17,16,12,19.70
2013,07,17,16,13,19.70
2013,07,17,16,14,19.70
2013,07,17,16,15,19.60
2013,07,17,16,16,19.60
2013,07,17,16,17,19.60
2013,07,17,16,18,19.60
2013,07,17,16,19,19.50
2013,07,17,16,20,19.50
2013,07,17,16,21,19.50
2013,07,17,16,22,19.40
2013,07,17,16,23,19.40
2013,07,17,16,24,19.40
2013,07,17,16,25,19.40
2013,07,17,16,26,19.40
2013,07,17,16,27,19.50
2013,07,17,16,28,19.50
2013,07,17,16,29,19.50
2013,07,17,16,30,19.50
2013,07,17,16,31,19.50
2013,07,17,16,32,19.60
2013,07,17,16,33,19.50
2013,07,17,16,34,19.50
2013,07,17,16,35,19.50
2013,07,17,16,36,19.50
2013,07,17,16,37,19.50
2013,07,17,16,38,19.50
2013,07,17,16,39,19.60
2013,07,17,16,40,19.60
2013,07,17,16,41,19.50
2013,07,17,16,42,19.50
2013,07,17,16,43,19.50
2013,07,17,16,44,19.50
2013,07,17,16,45,19.50
2013,07,17,16,46,19.50
2013,07,17,16,47,19.40
2013,07,17,16,48,19.40
2013,07,17,16,49,19.40
2013,07,17,16,50,19.40
2013,07,17,16,51,19.40
2013,07,17,16,52,19.30
2013,07,17,16,53,19.30
2013,07,17,16,54,19.30
2013,07,17,16,55,19.40
2013,07,17,16,56,19.40
2013,07,17,16,57,19.40
2013,07,17,16,58,19.30
2013,07,17,16,59,19.30
2013,07,17,17,00,19.30
2013,07,17,17,01,19.30
2013,07,17,17,02,19.30
2013,07,17,17,03,19.30
2013,07,17,17,04,19.30
2013,07,17,17,05,19.30
2013,07,17,17,06,19.30
2013,07,17,17,07,19.30
2013,07,17,17,08,19.30
2013,07,17,17,09,19.30
2013,07,17,17,10,19.20
2013,07,17,17,11,19.20
2013,07,17,17,12,19.10
2013,07,17,17,13,19.10
2013,07,17,17,14,19.20
2013,07,17,17,15,19.10
2013,07,17,17,16,19.10
2013,07,17,17,17,19.10
2013,07,17,17,18,19.10
2013,07,17,17,19,19.10
2013,07,17,17,20,19.10
2013,07,17,17,21,19.10
2013,07,17,17,22,19.10
2013,07,17,17,23,19.10
2013,07,17,17,24,19.10
2013,07,17,17,25,19.10
2013,07,17,17,26,19.10
2013,07,17,17,27,19.10
2013,07,17,17,28,19.10
2013,07,17,17,29,19.10
2013,07,17,17,30,19.10
2013,07,17,17,31,19.10
2013,07,17,17,32,19.10
2013,07,17,17,33,19.20
2013,07,17,17,34,19.20
2013,07,17,17,35,19.20
2013,07,17,17,36,19.30
2013,07,17,17,37,19.30
2013,07,17,17,38,19.30
2013,07,17,17,39,19.30
2013,07,17,17,40,19.20
2013,07,17,17,41,19.20
2013,07,17,17,42,19.20
2013,07,17,17,43,19.20
2013,07,17,17,44,19.10
2013,07,17,17,45,19.10
2013,07,17,17,46,19.10
2013,07,17,17,47,19.10
2013,07,17,17,48,19.10
2013,07,17,17,49,19.10
2013,07,17,17,50,19.10
2013,07,17,17,51,19.10
2013,07,17,17,52,19.10
2013,07,17,17,53,19.10
2013,07,17,17,54,19.10
2013,07,17,17,55,19.10
2013,07,17,17,56,19.10
2013,07,17,17,57,18.90
2013,07,17,17,58,18.90
2013,07,17,17,59,18.90
2013,07,17,18,00,18.90
2013,07,17,18,01,18.90
2013,07,17,18,02,18.90
2013,07,17,18,03,18.90
2013,07,17,18,04,18.90
2013,07,17,18,05,18.90
2013,07,17,18,06,18.90
2013,07,17,18,07,18.80
2013,07,17,18,08,18.80
2013,07,17,18,09,18.80
2013,07,17,18,10,18.80
2013,07,17,18,11,18.80
2013,07,17,18,12,18.70
2013,07,17,18,13,18.80
2013,07,17,18,14,18.70
2013,07,17,18,15,18.70
2013,07,17,18,16,18.70
2013,07,17,18,17,18.70
2013,07,17,18,18,18.70
2013,07,17,18,19,18.70
2013,07,17,18,20,18.70
2013,07,17,18,21,18.70
2013,07,17,18,22,18.60
2013,07,17,18,23,18.50
2013,07,17,18,24,18.50
2013,07,17,18,25,18.50
2013,07,17,18,26,18.50
2013,07,17,18,27,18.50
2013,07,17,18,28,18.50
2013,07,17,18,29,18.50
2013,07,17,18,30,18.40
2013,07,17,18,31,18.40
2013,07,17,18,32,18.40
2013,07,17,18,33,18.40
2013,07,17,18,34,18.40
2013,07,17,18,35,18.30
2013,07,17,18,36,18.30
2013,07,17,18,37,18.30
2013,07,17,18,38,18.20
2013,07,17,18,39,18.20
2013,07,17,18,40,18.20
2013,07,17,18,41,18.20
2013,07,17,18,42,18.20
2013,07,17,18,43,18.20
2013,07,17,18,44,18.20
2013,07,17,18,45,18.20
2013,07,17,18,46,18.20
2013,07,17,18,47,18.30
2013,07,17,18,48,18.30
2013,07,17,18,49,18.30
2013,07,17,18,50,18.30
2013,07,17,18,51,18.30
2013,07,17,18,52,18.20
2013,07,17,18,53,18.20
2013,07,17,18,54,18.20
2013,07,17,18,55,18.20
2013,07,17,18,56,18.20
2013,07,17,18,57,18.20
2013,07,17,18,58,18.20
2013,07,17,18,59,18.20
2013,07,17,19,00,18.20
2013,07,17,19,01,18.20
2013,07,17,19,02,18.20
2013,07,17,19,03,18.20
2013,07,17,19,04,18.20
2013,07,17,19,05,18.20
2013,07,17,19,06,18.10
2013,07,17,19,07,18.10
2013,07,17,19,08,18.10
2013,07,17,19,09,18.20
2013,07,17,19,10,18.20
2013,07,17,19,11,18.10
2013,07,17,19,12,18.10
2013,07,17,19,13,18.10
2013,07,17,19,14,18.10
2013,07,17,19,15,18.10
2013,07,17,19,16,18.10
2013,07,17,19,17,18.10
2013,07,17,19,18,18.10
2013,07,17,19,19,18.10
2013,07,17,19,20,17.90
2013,07,17,19,21,17.90
2013,07,17,19,22,18.10
2013,07,17,19,23,18.10
2013,07,17,19,24,18.10
2013,07,17,19,25,17.90
2013,07,17,19,26,17.90
2013,07,17,19,27,17.90
2013,07,17,19,28,17.90
2013,07,17,19,29,17.90
2013,07,17,19,30,17.90
2013,07,17,19,31,17.90
2013,07,17,19,32,17.90
2013,07,17,19,33,17.90
2013,07,17,19,34,17.90
2013,07,17,19,35,17.90
2013,07,17,19,36,17.90
2013,07,17,19,37,17.90
2013,07,17,19,38,17.90
2013,07,17,19,39,17.80
2013,07,17,19,40,17.80
2013,07,17,19,41,17.80
2013,07,17,19,42,17.80
2013,07,17,19,43,17.80
2013,07,17,19,44,17.90
2013,07,17,19,45,17.90
2013,07,17,19,46,17.80
2013,07,17,19,47,17.80
2013,07,17,19,48,17.80
2013,07,17,19,49,17.80
2013,07,17,19,50,17.80
2013,07,17,19,51,17.80